AAL1051 KATL-KDFW

Flight info

Callsign AAL1051
Flight time N/A
Altitude 34000
Route KAJIN2 STNGA MLU YUYUN BEREE3
Aircraft A321/M-SDE3FGHIRWY/LB1

Departure

Time 2026-05-07 17:22
Airport Hartsfield Jackson Atlanta International Airport (KATL)

Arrival

Time N/A
Airport Dallas Fort Worth International Airport (KDFW)
Time Latitude Longitude Altitude Speed Heading
2026-05-07 16:48 33.64384 -84.44205 1007 ft 0 kts 270°
2026-05-07 17:08 33.64384 -84.44202 1006 ft 3 kts 270°
2026-05-07 17:08 33.64383 -84.44171 1006 ft 4 kts 268°
2026-05-07 17:09 33.64388 -84.44140 1006 ft 4 kts 238°
2026-05-07 17:09 33.64406 -84.44121 1006 ft 4 kts 186°
2026-05-07 17:09 33.64416 -84.44121 1006 ft 1 kts 178°
2026-05-07 17:09 33.64417 -84.44121 1006 ft 0 kts 178°
2026-05-07 17:11 33.64416 -84.44121 1006 ft 1 kts 178°
2026-05-07 17:12 33.64415 -84.44121 1006 ft 2 kts 178°
2026-05-07 17:12 33.64408 -84.44120 1006 ft 2 kts 178°
2026-05-07 17:12 33.64345 -84.44115 1006 ft 13 kts 177°
2026-05-07 17:12 33.64260 -84.44115 1006 ft 12 kts 180°
2026-05-07 17:13 33.64182 -84.44115 1006 ft 10 kts 180°
2026-05-07 17:13 33.64099 -84.44115 1006 ft 18 kts 180°
2026-05-07 17:13 33.63949 -84.44115 1006 ft 22 kts 179°
2026-05-07 17:13 33.63803 -84.44115 1006 ft 17 kts 179°
2026-05-07 17:14 33.63787 -84.44115 1006 ft 0 kts 180°
2026-05-07 17:15 33.63740 -84.44115 1006 ft 15 kts 180°
2026-05-07 17:15 33.63667 -84.44087 1007 ft 9 kts 117°
2026-05-07 17:15 33.63663 -84.44013 1007 ft 9 kts 88°
2026-05-07 17:15 33.63664 -84.43937 1006 ft 12 kts 90°
2026-05-07 17:16 33.63664 -84.43756 1006 ft 25 kts 90°
2026-05-07 17:16 33.63665 -84.43548 1006 ft 24 kts 89°
2026-05-07 17:16 33.63665 -84.43348 1006 ft 23 kts 90°
2026-05-07 17:16 33.63664 -84.43157 1006 ft 22 kts 90°
2026-05-07 17:17 33.63664 -84.42974 1006 ft 21 kts 90°
2026-05-07 17:17 33.63665 -84.42800 1006 ft 20 kts 90°
2026-05-07 17:17 33.63656 -84.42642 1007 ft 18 kts 90°
2026-05-07 17:17 33.63655 -84.42490 1007 ft 21 kts 90°
2026-05-07 17:18 33.63656 -84.42266 1007 ft 28 kts 90°
2026-05-07 17:18 33.63655 -84.42036 1007 ft 27 kts 91°
2026-05-07 17:18 33.63655 -84.41814 1006 ft 26 kts 90°
2026-05-07 17:18 33.63655 -84.41599 1006 ft 25 kts 90°
2026-05-07 17:19 33.63656 -84.41392 1006 ft 24 kts 89°
2026-05-07 17:19 33.63655 -84.41194 1006 ft 23 kts 90°
2026-05-07 17:19 33.63655 -84.41009 1006 ft 19 kts 91°
2026-05-07 17:19 33.63623 -84.40910 1006 ft 10 kts 166°
2026-05-07 17:20 33.63583 -84.40909 1006 ft 0 kts 180°
2026-05-07 17:20 33.63569 -84.40909 1006 ft 1 kts 180°
2026-05-07 17:20 33.63568 -84.40909 1006 ft 0 kts 180°
2026-05-07 17:21 33.63560 -84.40909 1006 ft 7 kts 180°
2026-05-07 17:21 33.63473 -84.40924 1007 ft 10 kts 235°
2026-05-07 17:21 33.63471 -84.41042 1006 ft 32 kts 270°
2026-05-07 17:21 33.63470 -84.41599 1005 ft 98 kts 270°
2026-05-07 17:22 33.63471 -84.42631 1007 ft 148 kts 270°
2026-05-07 17:22 33.63470 -84.44020 1086 ft 179 kts 271°
2026-05-07 17:22 33.63466 -84.45501 1676 ft 176 kts 272°
2026-05-07 17:22 33.63482 -84.46971 2303 ft 176 kts 274°
2026-05-07 17:23 33.63499 -84.48451 2838 ft 181 kts 273°
2026-05-07 17:23 33.63514 -84.50045 2980 ft 201 kts 272°
2026-05-07 17:23 33.63531 -84.51814 3087 ft 225 kts 272°
2026-05-07 17:23 33.63551 -84.53763 3326 ft 241 kts 271°
2026-05-07 17:24 33.63553 -84.55847 3773 ft 255 kts 270°
2026-05-07 17:24 33.63549 -84.57986 4584 ft 257 kts 270°
2026-05-07 17:24 33.63523 -84.60134 5419 ft 258 kts 269°
2026-05-07 17:24 33.63506 -84.62258 6261 ft 253 kts 270°
2026-05-07 17:25 33.63490 -84.64381 6917 ft 257 kts 269°
2026-05-07 17:25 33.63475 -84.66527 7624 ft 258 kts 269°
2026-05-07 17:25 33.63472 -84.68685 8343 ft 259 kts 269°
2026-05-07 17:25 33.63477 -84.70848 9037 ft 259 kts 269°
2026-05-07 17:26 33.63441 -84.73008 9700 ft 259 kts 263°
2026-05-07 17:26 33.63107 -84.75143 10281 ft 264 kts 258°
2026-05-07 17:26 33.62725 -84.77379 10403 ft 284 kts 258°
2026-05-07 17:26 33.62319 -84.79762 10557 ft 299 kts 258°
2026-05-07 17:27 33.61896 -84.82232 10987 ft 304 kts 258°
2026-05-07 17:27 33.61474 -84.84732 11576 ft 307 kts 258°
2026-05-07 17:27 33.61047 -84.87237 12228 ft 306 kts 257°
2026-05-07 17:27 33.60588 -84.89896 12895 ft 308 kts 257°
2026-05-07 17:28 33.60173 -84.92270 13446 ft 312 kts 258°
2026-05-07 17:28 33.59727 -84.94822 14044 ft 313 kts 258°
2026-05-07 17:28 33.59284 -84.97391 14597 ft 316 kts 258°
2026-05-07 17:28 33.58841 -84.99981 15132 ft 320 kts 258°
2026-05-07 17:29 33.58441 -85.02443 15630 ft 321 kts 259°
2026-05-07 17:29 33.57997 -85.05092 16137 ft 324 kts 258°
2026-05-07 17:29 33.57538 -85.07755 16656 ft 325 kts 258°
2026-05-07 17:29 33.57069 -85.10442 17127 ft 327 kts 259°